HST 1 20580U 90037B 26072.92291013 .00008620 00000+0 28446-3 0 9990 2 20580 28.4723 11.1207 0001777 167.7784 192.2855 15.29556322773961 POLAR 1 23802U 96013A 26072.52935318 .00000230 00000+0 00000+0 0 9990 2 23802 79.7558 228.1473 6373426 212.3300 84.2673 1.29845770143615 SWAS 1 25560U 98071A 26072.84384341 .00003921 00000+0 25442-3 0 9999 2 25560 69.8953 113.2656 0004365 5.1178 355.0030 15.08924016482886 CXO 1 25867U 99040B 26074.17591503 .00001098 00000+0 00000+0 0 9996 2 25867 54.6015 119.5309 7987924 310.6410 0.3950 0.37797975 16963 XMM-NEWTON 1 25989U 99066A 26073.60830429 .00000188 00000+0 00000+0 0 9998 2 25989 64.9635 284.2156 4708982 66.5664 0.0242 0.50129949 22525 TERRA 1 25994U 99068A 26072.90335856 .00000491 00000+0 10912-3 0 9996 2 25994 97.9585 126.1770 0002951 141.9494 334.0999 14.61019656395695 CLUSTER II-FM7 (SAMBA) 1 26410U 00041A 26072.18498853 .00009157 00000+0 00000+0 0 9991 2 26410 149.0994 35.5717 8921020 251.7870 0.4837 0.44824009 19879 CLUSTER II-FM8 (TANGO) 1 26464U 00045B 26049.06287974 .00004776 00000+0 00000+0 0 9997 2 26464 149.0711 33.5376 8890045 249.4570 359.4916 0.44405995 19769 ODIN 1 26702U 01007A 26072.83515685 .00049991 00000+0 63896-3 0 9999 2 26702 97.4074 109.0515 0004906 133.7070 226.4594 15.59083175374483 TIMED 1 26998U 01055B 26072.39331273 .00001759 00000+0 16426-3 0 9996 2 26998 74.0663 67.8646 0002991 270.8538 89.2304 14.95035844316507 CORIOLIS 1 27640U 03001A 26072.92764287 .00000172 00000+0 10141-3 0 9994 2 27640 98.7160 81.2566 0014944 124.9983 235.2598 14.19914591200705 SORCE 1 27651U 03004A 26072.48626655 .00004269 00000+0 32078-3 0 9990 2 27651 39.9904 87.4589 0015654 84.4230 275.8349 15.03129458257493 MOST 1 27843U 03031D 26072.96383930 .00000110 00000+0 70649-4 0 9990 2 27843 98.7081 82.0068 0010179 161.5538 198.6011 14.21300561177183 SCISAT 1 1 27858U 03036A 26072.93773583 .00001014 00000+0 13447-3 0 9991 2 27858 73.9328 0.5756 0005828 86.9309 273.2534 14.81322398217349 SWIFT 1 28485U 04047A 26072.63927365 .00049576 00000+0 58234-3 0 9995 2 28485 20.5519 197.1376 0004429 68.9586 291.1332 15.59650813171885 HINODE (SOLAR-B) 1 29479U 06041A 26072.93244624 .00000763 00000+0 13987-3 0 9999 2 29479 98.0619 90.4687 0016491 227.2182 132.7637 14.68481395 40894 SHIJIAN-6 02A (SJ-6 02A) 1 29505U 06046A 26073.00246297 .00006173 00000+0 32697-3 0 9991 2 29505 97.6496 113.3760 0004763 104.7518 255.4243 15.15768295 57849 SHIJIAN-6 02B (SJ-6 02B) 1 29506U 06046B 26072.96445509 .00002350 00000+0 18838-3 0 9997 2 29506 97.7077 102.6645 0013821 30.0857 330.1158 15.01021872 56451 FGRST (GLAST) 1 33053U 08029A 26072.87527331 .00004511 00000+0 17057-3 0 9999 2 33053 25.5810 146.0067 0007731 282.3369 77.6303 15.23369155981286 SDO 1 36395U 10005A 26072.03113264 -.00000061 00000+0 00000+0 0 9995 2 36395 34.4479 87.7975 0000089 92.2732 259.9492 1.00275372 59094 CRYOSAT 2 1 36508U 10013A 26072.97183361 .00000312 00000+0 76702-4 0 9993 2 36508 92.0231 254.2260 0002127 91.7498 268.3953 14.51901565844269 X-SAT 1 37389U 11015C 26072.95572000 -.00000085 00000+0 -18745-4 0 9996 2 37389 98.3435 54.5594 0012814 262.8842 97.0881 14.25173899774116 GCOM-W1 (SHIZUKU) 1 38337U 12025A 26072.78239376 .00000761 00000+0 17896-3 0 9993 2 38337 98.2056 14.7818 0001429 73.1631 316.6574 14.57105487735146 NUSTAR 1 38358U 12031A 26073.00002315 .00010059 00000+0 58358-3 0 9999 2 38358 6.0268 27.6110 0007401 138.4943 74.2610 15.07785652 1302 NEOSSAT 1 39089U 13009D 26072.45912033 .00000242 00000+0 98224-4 0 9992 2 39089 98.4145 254.7746 0011282 166.2716 193.8779 14.35787902683007 BRITE-AUSTRIA 1 39091U 13009F 26072.43554912 .00000279 00000+0 10965-3 0 9996 2 39091 98.3960 254.2493 0010590 160.2337 199.9262 14.36498727683304 IRIS 1 39197U 13033A 26072.80311782 .00001708 00000+0 20262-3 0 9996 2 39197 97.9398 272.3496 0023219 271.2599 88.5956 14.85661052686213 HISAKI (SPRINT-A) 1 39253U 13049A 26072.16379401 .00000127 00000+0 84020-4 0 9994 2 39253 29.7220 348.1967 0136599 318.2495 40.7723 13.55531070618388 CASSIOPE 1 39265U 13055A 26072.90146263 .00041409 -45984-6 49587-3 0 9998 2 39265 80.9195 181.8791 0314012 22.1921 339.2554 15.19108052653177 STSAT-3 1 39422U 13066G 26072.94254117 .00004967 00000+0 38178-3 0 9991 2 39422 97.6063 44.4825 0010987 359.2954 0.8253 15.02125362669907 SWARM B 1 39451U 13067A 26072.92634797 .00005031 00000+0 18358-3 0 9999 2 39451 87.7490 11.2062 0003639 84.1161 276.0503 15.27904795668690 SWARM A 1 39452U 13067B 26072.98721065 .00012566 00000+0 23274-3 0 9995 2 39452 87.3286 91.5650 0003154 94.9454 265.2166 15.48856380691500 SWARM C 1 39453U 13067C 26072.98710151 .00012765 00000+0 23642-3 0 9990 2 39453 87.3284 90.1463 0003157 95.0261 265.1359 15.48857349691461 BRITE-CA1 (TORONTO) 1 40020U 14033L 26072.91017433 .00001584 00000+0 24600-3 0 9994 2 40020 97.9574 203.6908 0078081 221.2253 138.3043 14.72478119628190 OCO 2 1 40059U 14035A 26072.91061621 .00000613 00000+0 14612-3 0 9990 2 40059 98.1998 15.6948 0001298 94.6259 265.5088 14.57099503622177 BRITE-PL2 (HEWELIUSZ) 1 40119U 14049B 26072.89201747 .00002301 00000+0 21980-3 0 9996 2 40119 97.8979 184.2464 0015165 68.3405 291.9428 14.94205857627217 MMS 1 1 40482U 15011A 26073.00002315 -.00001984 00000+0 00000+0 0 9996 2 40482 70.7850 350.1337 8410262 165.2692 309.9490 0.28188681 1369 MMS 2 1 40483U 15011B 26073.00002315 -.00001984 00000+0 00000+0 0 9997 2 40483 70.7852 350.1358 8410991 165.2753 309.9329 0.28188744 1363 MMS 3 1 40484U 15011C 26073.00002315 -.00001984 00000+0 00000+0 0 9998 2 40484 70.7876 350.1405 8410271 165.2695 309.9404 0.28188708 1363 MMS 4 1 40485U 15011D 26073.00002315 -.00001984 00000+0 00000+0 0 9999 2 40485 70.7856 350.1356 8409750 165.2768 309.9253 0.28189198 1364 ASTROSAT 1 40930U 15052A 26072.69189029 .00002271 00000+0 19554-3 0 9998 2 40930 5.9965 122.6344 0007493 112.1131 247.9792 14.82312125565631 DAMPE 1 41173U 15078A 26072.98470059 .00001913 00000+0 67343-4 0 9996 2 41173 97.4589 77.9934 0013630 58.0992 302.1573 15.30516995569987 PISAT 1 41784U 16059B 26072.98086778 .00001284 00000+0 22662-3 0 9990 2 41784 97.8192 77.5366 0029882 147.3111 212.9952 14.68785864505763 HXMT (HUIYAN) 1 42758U 17034A 26072.99018870 .00007296 00000+0 36350-3 0 9993 2 42758 43.0162 352.7637 0033268 262.0906 97.6166 15.17532055483198 FLYING LAPTOP 1 42831U 17042G 26072.97918277 .00005010 00000+0 39995-3 0 9992 2 42831 97.4278 232.4620 0019586 81.9129 278.4316 15.00551853472170 ZHANGHENG 1-01 (CSES-1) 1 43194U 18015C 26072.99700656 .00011423 00000+0 51459-3 0 9992 2 43194 97.6758 236.8113 0015094 228.8983 131.0949 15.21129010450174 SALSAT 1 46495U 20068K 26072.92904214 .00011089 00000+0 40496-3 0 9996 2 46495 97.8859 70.3060 0008073 278.4206 81.6117 15.28278458300804 IXPE 1 49954U 21121A 26073.00002315 .00014596 00000+0 83184-3 0 9998 2 49954 0.2305 316.8992 0007348 80.4814 191.2412 15.09278768 4937